TAM8195 SBGR-KMIA

Flight info

Callsign TAM8195
Flight time N/A
Altitude 34000
Route GERTU UL304 OPNUS UM417 KONKI UL304 BRUTI UM417 UMGUP/N0486F360 UM417 ISUNU UM409 VUMPI UL795 MAGTA/N0481F380 UL795 ALTIB UM779 ZEUSS VIICE2
Aircraft B77W/H-SDE1E2E3FGHIJ2J3J4J5M1RWXY/LB1D1

Departure

Time 2026-05-04 18:22
Airport São Paulo/Guarulhos–Governor André Franco Montoro International Airport (SBGR)

Arrival

Time N/A
Airport Miami International Airport (KMIA)
Time Latitude Longitude Altitude Speed Heading
2026-05-04 17:44 -23.42944 -46.48063 2453 ft 0 kts 36°
2026-05-04 18:13 -23.42955 -46.48070 2453 ft 2 kts 16°
2026-05-04 18:13 -23.42970 -46.48071 2453 ft 2 kts 351°
2026-05-04 18:13 -23.42995 -46.48056 2453 ft 2 kts 306°
2026-05-04 18:14 -23.43002 -46.48042 2453 ft 2 kts 284°
2026-05-04 18:14 -23.43004 -46.48026 2453 ft 2 kts 261°
2026-05-04 18:14 -23.43000 -46.48010 2453 ft 2 kts 249°
2026-05-04 18:15 -23.42997 -46.48002 2453 ft 0 kts 249°
2026-05-04 18:15 -23.42997 -46.48003 2453 ft 0 kts 249°
2026-05-04 18:17 -23.42998 -46.48004 2453 ft 1 kts 251°
2026-05-04 18:17 -23.43005 -46.48030 2453 ft 5 kts 252°
2026-05-04 18:17 -23.43042 -46.48163 2453 ft 10 kts 255°
2026-05-04 18:18 -23.43055 -46.48247 2453 ft 11 kts 264°
2026-05-04 18:18 -23.43062 -46.48340 2452 ft 12 kts 265°
2026-05-04 18:18 -23.43090 -46.48415 2451 ft 11 kts 208°
2026-05-04 18:18 -23.43173 -46.48409 2451 ft 12 kts 161°
2026-05-04 18:19 -23.43327 -46.48358 2455 ft 10 kts 163°
2026-05-04 18:19 -23.43392 -46.48331 2457 ft 9 kts 143°
2026-05-04 18:19 -23.43412 -46.48272 2459 ft 8 kts 75°
2026-05-04 18:20 -23.43411 -46.48267 2459 ft 0 kts 73°
2026-05-04 18:21 -23.43411 -46.48266 2459 ft 0 kts 73°
2026-05-04 18:21 -23.43361 -46.48088 2459 ft 64 kts 73°
2026-05-04 18:21 -23.43153 -46.47318 2459 ft 144 kts 73°
2026-05-04 18:21 -23.42802 -46.46021 2512 ft 209 kts 73°
2026-05-04 18:22 -23.42362 -46.44368 3093 ft 235 kts 74°
2026-05-04 18:22 -23.41868 -46.42658 4048 ft 239 kts 71°
2026-05-04 18:22 -23.41324 -46.40921 4600 ft 252 kts 71°
2026-05-04 18:22 -23.40774 -46.39059 5186 ft 265 kts 72°
2026-05-04 18:23 -23.40222 -46.37144 5967 ft 270 kts 72°
2026-05-04 18:23 -23.39415 -46.35269 6763 ft 274 kts 59°
2026-05-04 18:23 -23.38408 -46.33509 7572 ft 277 kts 57°
2026-05-04 18:23 -23.37370 -46.31737 8369 ft 281 kts 57°
2026-05-04 18:24 -23.36328 -46.29947 9149 ft 284 kts 58°
2026-05-04 18:24 -23.35279 -46.28138 9913 ft 287 kts 58°
2026-05-04 18:24 -23.34200 -46.26277 10514 ft 297 kts 58°
2026-05-04 18:24 -23.33067 -46.24322 10932 ft 314 kts 58°
2026-05-04 18:25 -23.31880 -46.22274 11366 ft 329 kts 58°
2026-05-04 18:25 -23.30616 -46.20096 11819 ft 345 kts 58°
2026-05-04 18:25 -23.29321 -46.17865 12274 ft 359 kts 58°
2026-05-04 18:25 -23.27957 -46.15515 12847 ft 370 kts 58°
2026-05-04 18:26 -23.26577 -46.13140 13595 ft 375 kts 58°
2026-05-04 18:26 -23.25196 -46.10762 14357 ft 379 kts 58°
2026-05-04 18:26 -23.23766 -46.08313 15106 ft 384 kts 56°
2026-05-04 18:26 -23.22101 -46.06062 15818 ft 388 kts 45°
2026-05-04 18:27 -23.20032 -46.04134 16527 ft 392 kts 35°
2026-05-04 18:27 -23.17700 -46.02636 17227 ft 396 kts 25°
2026-05-04 18:27 -23.15098 -46.01566 17933 ft 399 kts 15°
2026-05-04 18:27 -23.12373 -46.01001 18597 ft 403 kts
2026-05-04 18:28 -23.09528 -46.00959 19251 ft 407 kts 355°
2026-05-04 18:28 -23.06745 -46.01458 19877 ft 411 kts 345°
2026-05-04 18:28 -23.04034 -46.02506 20495 ft 415 kts 335°
2026-05-04 18:28 -23.01508 -46.04087 21099 ft 419 kts 324°
2026-05-04 18:29 -22.99311 -46.06112 21674 ft 423 kts 314°
2026-05-04 18:29 -22.97430 -46.08605 22250 ft 426 kts 303°
2026-05-04 18:29 -22.95995 -46.11395 22796 ft 430 kts 294°
2026-05-04 18:29 -22.95006 -46.14482 23333 ft 434 kts 283°
2026-05-04 18:30 -22.93393 -46.20802 24388 ft 440 kts 292°
2026-05-04 18:30 -22.92124 -46.23805 24889 ft 443 kts 297°
2026-05-04 18:30 -22.90629 -46.26744 25372 ft 446 kts 300°
2026-05-04 18:31 -22.89256 -46.29797 25833 ft 450 kts 292°
2026-05-04 18:31 -22.88064 -46.32937 26313 ft 453 kts 292°
2026-05-04 18:31 -22.86838 -46.36065 26785 ft 456 kts 293°
2026-05-04 18:31 -22.85547 -46.39231 27255 ft 460 kts 294°
2026-05-04 18:32 -22.84232 -46.42371 27716 ft 463 kts 294°
2026-05-04 18:32 -22.82882 -46.45535 28172 ft 466 kts 295°
2026-05-04 18:32 -22.81497 -46.48738 28627 ft 469 kts 295°
2026-05-04 18:32 -22.80096 -46.51945 29079 ft 472 kts 295°
2026-05-04 18:33 -22.78694 -46.55134 29583 ft 474 kts 295°
2026-05-04 18:33 -22.77277 -46.58341 29969 ft 475 kts 295°
2026-05-04 18:33 -22.75847 -46.61565 30004 ft 475 kts 295°
2026-05-04 18:34 -22.72991 -46.67976 30008 ft 470 kts 296°
2026-05-04 18:34 -22.70151 -46.74327 30008 ft 471 kts 296°
2026-05-04 18:35 -22.67290 -46.80712 30008 ft 470 kts 296°
2026-05-04 18:35 -22.64420 -46.87086 30008 ft 470 kts 296°
2026-05-04 18:36 -22.61561 -46.93415 30008 ft 470 kts 296°
2026-05-04 18:36 -22.58684 -46.99799 30008 ft 470 kts 296°
2026-05-04 18:37 -22.55831 -47.06144 30003 ft 470 kts 294°
2026-05-04 18:37 -22.53835 -47.12854 30009 ft 471 kts 285°
2026-05-04 18:38 -22.52140 -47.19701 30008 ft 470 kts 285°
2026-05-04 18:38 -22.50443 -47.26539 30008 ft 470 kts 285°
2026-05-04 18:39 -22.48747 -47.33351 30008 ft 470 kts 285°
2026-05-04 18:39 -22.47034 -47.40211 30008 ft 470 kts 285°
2026-05-04 18:40 -22.45333 -47.47014 30008 ft 470 kts 285°
2026-05-04 18:40 -22.42983 -47.53567 30004 ft 470 kts 300°
2026-05-04 18:41 -22.38997 -47.58935 30003 ft 470 kts 317°
2026-05-04 18:41 -22.33865 -47.63075 30008 ft 470 kts 324°
2026-05-04 18:42 -22.28514 -47.67090 30008 ft 470 kts 325°
2026-05-04 18:42 -22.23139 -47.71112 30008 ft 470 kts 325°
2026-05-04 18:43 -22.17781 -47.75115 30008 ft 470 kts 325°
2026-05-04 18:43 -22.12370 -47.79152 30008 ft 470 kts 325°
2026-05-04 18:44 -22.06995 -47.83158 30008 ft 470 kts 325°
2026-05-04 18:44 -22.01607 -47.87170 30008 ft 470 kts 325°
2026-05-04 18:45 -21.96229 -47.91170 30008 ft 470 kts 325°
2026-05-04 18:45 -21.90842 -47.95173 30008 ft 470 kts 325°
2026-05-04 18:46 -21.85431 -47.99189 30008 ft 470 kts 325°
2026-05-04 18:46 -21.80051 -48.03179 30008 ft 470 kts 325°
2026-05-04 18:47 -21.74703 -48.07220 30008 ft 470 kts 324°
2026-05-04 18:47 -21.69359 -48.11309 30008 ft 470 kts 324°
2026-05-04 18:48 -21.64025 -48.15382 30008 ft 470 kts 324°
2026-05-04 18:48 -21.58702 -48.19440 30008 ft 470 kts 324°
2026-05-04 18:49 -21.53365 -48.23504 30008 ft 470 kts 324°
2026-05-04 18:49 -21.48021 -48.27568 30008 ft 470 kts 324°
2026-05-04 18:50 -21.42689 -48.31620 30008 ft 470 kts 324°
2026-05-04 18:50 -21.37324 -48.35692 30008 ft 470 kts 324°
2026-05-04 18:51 -21.31986 -48.39741 30008 ft 470 kts 324°
2026-05-04 18:51 -21.26662 -48.43774 30008 ft 470 kts 324°
2026-05-04 18:52 -21.21321 -48.47817 30008 ft 469 kts 324°
2026-05-04 18:52 -21.15964 -48.51869 30008 ft 469 kts 324°
2026-05-04 18:53 -21.10626 -48.55902 30008 ft 469 kts 324°
2026-05-04 18:53 -21.05304 -48.59920 30008 ft 469 kts 324°
2026-05-04 18:54 -20.99974 -48.63940 30008 ft 469 kts 324°
2026-05-04 18:54 -20.94597 -48.67992 30008 ft 469 kts 325°
2026-05-04 18:55 -20.89257 -48.72012 30008 ft 469 kts 324°
2026-05-04 18:55 -20.81239 -48.78043 30008 ft 469 kts 324°
2026-05-04 18:56 -20.75888 -48.82063 30008 ft 469 kts 324°
2026-05-04 18:56 -20.70556 -48.86065 30008 ft 469 kts 324°
2026-05-04 18:57 -20.65220 -48.90065 30008 ft 469 kts 324°
2026-05-04 18:57 -20.59852 -48.94087 30008 ft 469 kts 324°
2026-05-04 18:58 -20.54512 -48.98084 30008 ft 469 kts 324°
2026-05-04 18:58 -20.49156 -49.02090 30008 ft 469 kts 324°
2026-05-04 18:59 -20.43817 -49.06079 30008 ft 469 kts 324°
2026-05-04 18:59 -20.38468 -49.10072 30008 ft 469 kts 324°
2026-05-04 19:00 -20.33119 -49.14062 30008 ft 469 kts 324°
2026-05-04 19:00 -20.27762 -49.18054 30008 ft 469 kts 324°
2026-05-04 19:01 -20.22389 -49.22055 30008 ft 469 kts 324°
2026-05-04 19:01 -20.17024 -49.26046 30008 ft 469 kts 324°
2026-05-04 19:02 -20.11674 -49.30023 30008 ft 469 kts 324°
2026-05-04 19:02 -20.06338 -49.33986 30008 ft 469 kts 324°
2026-05-04 19:03 -20.00968 -49.37971 30008 ft 469 kts 324°
2026-05-04 19:03 -19.95592 -49.41958 30008 ft 469 kts 324°
2026-05-04 19:04 -19.90236 -49.45925 30008 ft 469 kts 324°
2026-05-04 19:04 -19.84873 -49.49895 30008 ft 469 kts 324°
2026-05-04 19:05 -19.79532 -49.53845 30008 ft 469 kts 324°
2026-05-04 19:05 -19.74174 -49.57805 30008 ft 469 kts 324°
2026-05-04 19:06 -19.68770 -49.61795 30008 ft 469 kts 324°
2026-05-04 19:06 -19.63415 -49.65745 30008 ft 469 kts 325°
2026-05-04 19:07 -19.58060 -49.69693 30008 ft 469 kts 325°
2026-05-04 19:07 -19.52691 -49.73647 30008 ft 469 kts 325°
2026-05-04 19:08 -19.47312 -49.77605 30008 ft 469 kts 325°
2026-05-04 19:08 -19.41970 -49.81533 30008 ft 469 kts 325°
2026-05-04 19:09 -19.36593 -49.85483 30008 ft 469 kts 325°
2026-05-04 19:09 -19.31234 -49.89418 30008 ft 469 kts 325°
2026-05-04 19:10 -19.25867 -49.93355 30008 ft 469 kts 325°
2026-05-04 19:10 -19.20505 -49.97285 30008 ft 469 kts 325°
2026-05-04 19:11 -19.15137 -50.01216 30008 ft 469 kts 325°
2026-05-04 19:11 -19.09782 -50.05135 30008 ft 469 kts 325°
2026-05-04 19:12 -19.01732 -50.11019 30008 ft 469 kts 325°
2026-05-04 19:13 -18.96364 -50.14940 30008 ft 469 kts 325°
2026-05-04 19:13 -18.90963 -50.18882 30008 ft 469 kts 325°
2026-05-04 19:14 -18.85586 -50.22802 30008 ft 468 kts 325°
2026-05-04 19:14 -18.80217 -50.26714 30008 ft 468 kts 325°
2026-05-04 19:15 -18.74880 -50.30599 30008 ft 468 kts 325°
2026-05-04 19:15 -18.69477 -50.34530 30008 ft 468 kts 325°
2026-05-04 19:16 -18.64138 -50.38411 30008 ft 468 kts 325°
2026-05-04 19:16 -18.58750 -50.42324 30008 ft 468 kts 325°
2026-05-04 19:17 -18.53376 -50.46224 30008 ft 468 kts 325°
2026-05-04 19:17 -18.47998 -50.50124 30008 ft 468 kts 325°
2026-05-04 19:18 -18.42638 -50.54004 30008 ft 468 kts 325°
2026-05-04 19:18 -18.37254 -50.57900 30008 ft 468 kts 325°
2026-05-04 19:19 -18.31920 -50.61756 30008 ft 468 kts 325°
2026-05-04 19:19 -18.26525 -50.65653 30008 ft 468 kts 325°
2026-05-04 19:20 -18.21154 -50.69529 30008 ft 468 kts 325°
2026-05-04 19:20 -18.15770 -50.73413 30008 ft 468 kts 325°
2026-05-04 19:21 -18.10394 -50.77287 30008 ft 469 kts 325°
2026-05-04 19:21 -18.04898 -50.81245 30410 ft 484 kts 325°
2026-05-04 19:21 -18.02095 -50.83263 31062 ft 482 kts 325°
2026-05-04 19:22 -17.99363 -50.85228 31816 ft 477 kts 325°
2026-05-04 19:22 -17.96647 -50.87182 32469 ft 474 kts 325°
2026-05-04 19:22 -17.93907 -50.89152 32984 ft 473 kts 325°
2026-05-04 19:22 -17.91182 -50.91110 33430 ft 473 kts 325°
2026-05-04 19:23 -17.88471 -50.93058 33866 ft 473 kts 325°
2026-05-04 19:23 -17.85734 -50.95023 33998 ft 476 kts 325°
2026-05-04 19:23 -17.82972 -50.97004 34006 ft 474 kts 325°
2026-05-04 19:24 -17.77520 -51.00915 34007 ft 472 kts 325°
2026-05-04 19:24 -17.72078 -51.04815 34007 ft 472 kts 325°
2026-05-04 19:25 -17.66640 -51.08709 34007 ft 472 kts 325°
2026-05-04 19:25 -17.61183 -51.12614 34007 ft 472 kts 325°
2026-05-04 19:26 -17.55763 -51.16490 34007 ft 472 kts 325°
2026-05-04 19:26 -17.50332 -51.20371 34007 ft 472 kts 325°
2026-05-04 19:27 -17.44881 -51.24263 34007 ft 472 kts 325°
2026-05-04 19:27 -17.39453 -51.28135 34007 ft 472 kts 325°
2026-05-04 19:28 -17.33957 -51.32057 34007 ft 472 kts 325°
2026-05-04 19:28 -17.28526 -51.35932 34007 ft 472 kts 325°
2026-05-04 19:29 -17.23081 -51.39817 34007 ft 472 kts 325°
2026-05-04 19:29 -17.17638 -51.43695 34007 ft 472 kts 325°
2026-05-04 19:30 -17.12173 -51.47587 34007 ft 472 kts 325°
2026-05-04 19:30 -17.06728 -51.51461 34007 ft 472 kts 325°
2026-05-04 19:31 -17.01275 -51.55339 34007 ft 472 kts 325°
2026-05-04 19:31 -16.95837 -51.59204 34007 ft 472 kts 325°
2026-05-04 19:32 -16.90403 -51.63062 34007 ft 472 kts 325°
2026-05-04 19:32 -16.84921 -51.66952 34007 ft 472 kts 326°
2026-05-04 19:33 -16.79465 -51.70820 34007 ft 472 kts 326°
2026-05-04 19:33 -16.74005 -51.74684 34007 ft 472 kts 326°
2026-05-04 19:34 -16.68564 -51.78534 34008 ft 472 kts 326°
2026-05-04 19:34 -16.63145 -51.82364 34008 ft 472 kts 326°
2026-05-04 19:35 -16.57660 -51.86239 34008 ft 472 kts 326°
2026-05-04 19:35 -16.52182 -51.90106 34008 ft 472 kts 326°
2026-05-04 19:36 -16.46725 -51.93955 34008 ft 472 kts 326°
2026-05-04 19:36 -16.41264 -51.97805 34008 ft 472 kts 326°
2026-05-04 19:37 -16.35803 -52.01653 34008 ft 472 kts 326°
2026-05-04 19:37 -16.30318 -52.05513 34008 ft 472 kts 326°
2026-05-04 19:38 -16.24844 -52.09256 34008 ft 472 kts 327°
2026-05-04 19:38 -16.19316 -52.12974 34008 ft 472 kts 327°
2026-05-04 19:39 -16.13760 -52.16714 34008 ft 472 kts 327°
2026-05-04 19:39 -16.08241 -52.20430 34008 ft 472 kts 327°
2026-05-04 19:40 -16.02716 -52.24150 34008 ft 472 kts 327°
2026-05-04 19:40 -15.97181 -52.27874 34008 ft 472 kts 327°
2026-05-04 19:41 -15.91660 -52.31588 34008 ft 472 kts 327°
2026-05-04 19:41 -15.86136 -52.35300 34008 ft 472 kts 327°
2026-05-04 19:42 -15.80594 -52.39023 34008 ft 472 kts 327°
2026-05-04 19:42 -15.75081 -52.42724 34008 ft 472 kts 327°
2026-05-04 19:43 -15.69530 -52.46448 34008 ft 472 kts 327°
2026-05-04 19:43 -15.64006 -52.50151 34008 ft 472 kts 327°
2026-05-04 19:44 -15.58463 -52.53865 34008 ft 472 kts 327°
2026-05-04 19:44 -15.52905 -52.57586 34008 ft 472 kts 327°
2026-05-04 19:45 -15.47378 -52.61284 34008 ft 472 kts 327°
2026-05-04 19:45 -15.41845 -52.64984 34008 ft 472 kts 327°
2026-05-04 19:46 -15.36293 -52.68694 34008 ft 472 kts 327°
2026-05-04 19:46 -15.30758 -52.72390 34008 ft 472 kts 327°
2026-05-04 19:47 -15.25221 -52.76085 34008 ft 472 kts 327°
2026-05-04 19:47 -15.19675 -52.79784 34008 ft 472 kts 327°
2026-05-04 19:48 -15.14119 -52.83487 34008 ft 472 kts 327°
2026-05-04 19:48 -15.08607 -52.87159 34008 ft 472 kts 327°
2026-05-04 19:49 -15.03064 -52.90849 34008 ft 472 kts 327°
2026-05-04 19:49 -14.97518 -52.94539 34008 ft 472 kts 327°
2026-05-04 19:50 -14.92014 -52.98198 34008 ft 472 kts 327°
2026-05-04 19:50 -14.86538 -53.01836 34008 ft 471 kts 327°
2026-05-04 19:51 -14.81018 -53.05502 34008 ft 472 kts 327°
2026-05-04 19:51 -14.75497 -53.09166 34008 ft 472 kts 327°
2026-05-04 19:52 -14.69980 -53.12805 34003 ft 471 kts 329°
2026-05-04 19:52 -14.64265 -53.16133 34008 ft 472 kts 330°
2026-05-04 19:53 -14.58526 -53.19452 34008 ft 472 kts 330°
2026-05-04 19:53 -14.52796 -53.22780 34008 ft 472 kts 330°
2026-05-04 19:54 -14.47067 -53.26114 34008 ft 472 kts 330°
2026-05-04 19:54 -14.41338 -53.29449 34008 ft 472 kts 330°
2026-05-04 19:55 -14.35587 -53.32798 34008 ft 472 kts 330°
2026-05-04 19:55 -14.29847 -53.36141 34008 ft 472 kts 330°
2026-05-04 19:56 -14.24123 -53.39472 34008 ft 472 kts 330°
2026-05-04 19:56 -14.18401 -53.42800 34008 ft 472 kts 330°
2026-05-04 19:57 -14.12622 -53.46160 34008 ft 472 kts 330°
2026-05-04 19:57 -14.06881 -53.49496 34008 ft 472 kts 330°
2026-05-04 19:58 -14.01141 -53.52829 34008 ft 472 kts 330°
2026-05-04 19:58 -13.95390 -53.56167 34008 ft 472 kts 330°
2026-05-04 19:59 -13.89664 -53.59490 34008 ft 471 kts 330°
2026-05-04 19:59 -13.83900 -53.62835 34008 ft 472 kts 330°
2026-05-04 20:00 -13.78160 -53.66163 34008 ft 472 kts 330°
2026-05-04 20:00 -13.72472 -53.69460 34008 ft 472 kts 330°
2026-05-04 20:01 -13.66724 -53.72790 34008 ft 472 kts 330°
2026-05-04 20:01 -13.60983 -53.76114 34008 ft 472 kts 330°
2026-05-04 20:02 -13.55255 -53.79428 34008 ft 472 kts 330°
2026-05-04 20:02 -13.49496 -53.82758 34008 ft 472 kts 330°
2026-05-04 20:03 -13.43779 -53.86062 34008 ft 472 kts 330°
2026-05-04 20:03 -13.38016 -53.89391 34008 ft 472 kts 330°
2026-05-04 20:04 -13.32264 -53.92712 34008 ft 472 kts 330°
2026-05-04 20:04 -13.26514 -53.96030 34008 ft 472 kts 330°
2026-05-04 20:05 -13.20782 -53.99336 34008 ft 472 kts 330°
2026-05-04 20:05 -13.15019 -54.02657 34008 ft 472 kts 330°
2026-05-04 20:06 -13.09277 -54.05965 34008 ft 472 kts 330°
2026-05-04 20:06 -13.03517 -54.09281 34008 ft 472 kts 330°
2026-05-04 20:07 -12.97785 -54.12579 34008 ft 472 kts 330°
2026-05-04 20:07 -12.92043 -54.15880 34008 ft 471 kts 330°
2026-05-04 20:08 -12.86299 -54.19179 34008 ft 471 kts 330°
2026-05-04 20:08 -12.80536 -54.22488 34008 ft 472 kts 330°
2026-05-04 20:09 -12.74764 -54.25799 34008 ft 472 kts 330°
2026-05-04 20:09 -12.69050 -54.29075 34008 ft 472 kts 330°
2026-05-04 20:10 -12.63283 -54.32381 34008 ft 472 kts 330°
2026-05-04 20:10 -12.57564 -54.35658 34008 ft 472 kts 330°
2026-05-04 20:11 -12.51789 -54.38965 34008 ft 472 kts 330°
2026-05-04 20:11 -12.46071 -54.42238 34008 ft 472 kts 330°
2026-05-04 20:12 -12.40302 -54.45539 34008 ft 471 kts 330°
2026-05-04 20:12 -12.34574 -54.48814 34008 ft 472 kts 330°
2026-05-04 20:13 -12.28800 -54.52114 34008 ft 472 kts 330°
2026-05-04 20:13 -12.23081 -54.55381 34008 ft 472 kts 330°
2026-05-04 20:14 -12.17318 -54.58672 34008 ft 472 kts 330°
2026-05-04 20:14 -12.11575 -54.61950 34008 ft 472 kts 330°
2026-05-04 20:15 -12.05797 -54.65247 34008 ft 472 kts 330°
2026-05-04 20:15 -12.00093 -54.68499 34008 ft 472 kts 330°
2026-05-04 20:16 -11.94320 -54.71789 34008 ft 472 kts 330°
2026-05-04 20:16 -11.88570 -54.75064 34008 ft 471 kts 330°
2026-05-04 20:17 -11.82809 -54.78344 34008 ft 472 kts 330°
2026-05-04 20:17 -11.77069 -54.81611 34008 ft 472 kts 330°
2026-05-04 20:18 -11.71294 -54.84896 34008 ft 472 kts 330°
2026-05-04 20:18 -11.65535 -54.88170 34008 ft 472 kts 330°
2026-05-04 20:19 -11.59768 -54.91447 34008 ft 472 kts 330°
2026-05-04 20:19 -11.54012 -54.94716 34008 ft 472 kts 330°
2026-05-04 20:20 -11.48239 -54.97994 34008 ft 472 kts 330°
2026-05-04 20:20 -11.42481 -55.01261 34008 ft 472 kts 330°
2026-05-04 20:21 -11.36723 -55.04527 34008 ft 472 kts 330°
2026-05-04 20:21 -11.28076 -55.09428 34008 ft 472 kts 330°
2026-05-04 20:22 -11.22282 -55.12711 34008 ft 472 kts 330°
2026-05-04 20:22 -11.16538 -55.15963 34008 ft 472 kts 330°
2026-05-04 20:23 -11.10793 -55.19215 34008 ft 472 kts 330°
2026-05-04 20:23 -11.05006 -55.22488 34008 ft 471 kts 330°
2026-05-04 20:24 -10.99248 -55.25743 34008 ft 472 kts 330°
2026-05-04 20:24 -10.93464 -55.29010 34008 ft 472 kts 330°
2026-05-04 20:25 -10.87705 -55.32263 34008 ft 471 kts 330°
2026-05-04 20:25 -10.81966 -55.35503 34008 ft 472 kts 330°
2026-05-04 20:26 -10.76211 -55.38750 34008 ft 472 kts 330°
2026-05-04 20:26 -10.70434 -55.42007 34008 ft 472 kts 330°
2026-05-04 20:27 -10.64679 -55.45252 34008 ft 472 kts 330°
2026-05-04 20:27 -10.58928 -55.48492 34008 ft 472 kts 330°
2026-05-04 20:28 -10.53112 -55.51769 34008 ft 472 kts 330°
2026-05-04 20:28 -10.47363 -55.55004 34008 ft 472 kts 330°
2026-05-04 20:29 -10.41574 -55.58262 34008 ft 472 kts 330°
2026-05-04 20:29 -10.35809 -55.61505 34008 ft 472 kts 330°
2026-05-04 20:30 -10.30052 -55.64742 34008 ft 472 kts 330°
2026-05-04 20:30 -10.24273 -55.67990 34008 ft 472 kts 331°
2026-05-04 20:31 -10.18529 -55.71217 34008 ft 471 kts 331°
2026-05-04 20:31 -10.12783 -55.74444 34008 ft 471 kts 331°
2026-05-04 20:32 -10.07055 -55.77659 34008 ft 471 kts 331°
2026-05-04 20:32 -10.01291 -55.80893 34008 ft 471 kts 331°
2026-05-04 20:33 -9.95527 -55.84126 34008 ft 471 kts 331°
2026-05-04 20:33 -9.89759 -55.87360 34008 ft 471 kts 331°
2026-05-04 20:34 -9.84010 -55.90582 34008 ft 471 kts 331°
2026-05-04 20:34 -9.78267 -55.93799 34008 ft 471 kts 331°
2026-05-04 20:35 -9.72526 -55.97014 34008 ft 471 kts 331°
2026-05-04 20:35 -9.66738 -56.00237 34008 ft 471 kts 332°
2026-05-04 20:36 -9.60955 -56.03386 34008 ft 471 kts 332°
2026-05-04 20:36 -9.55169 -56.06536 34008 ft 471 kts 332°
2026-05-04 20:37 -9.49345 -56.09708 34008 ft 471 kts 332°
2026-05-04 20:37 -9.43547 -56.12865 34008 ft 471 kts 332°
2026-05-04 20:38 -9.37753 -56.16020 34008 ft 471 kts 332°
2026-05-04 20:38 -9.31959 -56.19174 34008 ft 471 kts 332°
2026-05-04 20:39 -9.26144 -56.22339 34008 ft 471 kts 332°
2026-05-04 20:39 -9.20334 -56.25499 34008 ft 471 kts 332°
2026-05-04 20:40 -9.14544 -56.28648 34008 ft 471 kts 332°
2026-05-04 20:40 -9.08765 -56.31789 34008 ft 471 kts 332°
2026-05-04 20:41 -9.02922 -56.34964 34008 ft 471 kts 332°
2026-05-04 20:41 -8.97141 -56.38104 34008 ft 471 kts 332°
2026-05-04 20:42 -8.91343 -56.41253 34008 ft 471 kts 332°
2026-05-04 20:42 -8.85558 -56.44393 34008 ft 471 kts 332°
2026-05-04 20:43 -8.79786 -56.47525 34008 ft 471 kts 332°
2026-05-04 20:43 -8.73994 -56.50667 34008 ft 471 kts 332°
2026-05-04 20:44 -8.68196 -56.53810 34008 ft 471 kts 332°
2026-05-04 20:44 -8.62402 -56.56951 34008 ft 471 kts 332°
2026-05-04 20:45 -8.56615 -56.60086 34008 ft 471 kts 332°
2026-05-04 20:45 -8.50823 -56.63223 34008 ft 471 kts 332°
2026-05-04 20:46 -8.45040 -56.66355 34008 ft 471 kts 332°
2026-05-04 20:46 -8.39240 -56.69495 34008 ft 471 kts 332°
2026-05-04 20:47 -8.33438 -56.72634 34008 ft 471 kts 332°
2026-05-04 20:47 -8.27618 -56.75781 34008 ft 471 kts 332°
2026-05-04 20:48 -8.21861 -56.78894 34008 ft 471 kts 332°
2026-05-04 20:48 -8.16037 -56.82043 34008 ft 471 kts 332°
2026-05-04 20:49 -8.10252 -56.85169 34008 ft 471 kts 332°
2026-05-04 20:49 -8.04435 -56.88311 34008 ft 471 kts 332°
2026-05-04 20:50 -7.98633 -56.91443 34008 ft 471 kts 332°
2026-05-04 20:50 -7.92844 -56.94567 34008 ft 471 kts 332°
2026-05-04 20:51 -7.87041 -56.97698 34008 ft 471 kts 332°
2026-05-04 20:51 -7.81241 -57.00825 34008 ft 471 kts 332°
2026-05-04 20:52 -7.75445 -57.03951 34008 ft 471 kts 332°
2026-05-04 20:52 -7.69628 -57.07086 34008 ft 471 kts 332°
2026-05-04 20:53 -7.63861 -57.10194 34008 ft 471 kts 332°
2026-05-04 20:53 -7.58045 -57.13326 34008 ft 471 kts 332°
2026-05-04 20:54 -7.52250 -57.16447 34008 ft 471 kts 332°
2026-05-04 20:54 -7.46461 -57.19563 34008 ft 471 kts 332°
2026-05-04 20:55 -7.40632 -57.22700 34008 ft 471 kts 332°
2026-05-04 20:55 -7.34831 -57.25821 34008 ft 471 kts 332°
2026-05-04 20:56 -7.29014 -57.28949 34008 ft 471 kts 332°
2026-05-04 20:56 -7.23231 -57.32059 34008 ft 471 kts 332°
2026-05-04 20:57 -7.17423 -57.35181 34008 ft 471 kts 332°
2026-05-04 20:57 -7.11611 -57.38304 34008 ft 471 kts 332°
2026-05-04 20:58 -7.05795 -57.41428 34008 ft 471 kts 332°
2026-05-04 20:58 -6.99974 -57.44555 34008 ft 471 kts 332°
2026-05-04 20:59 -6.94170 -57.47671 34008 ft 471 kts 332°
2026-05-04 20:59 -6.88378 -57.50780 34008 ft 471 kts 332°
2026-05-04 21:00 -6.82581 -57.53890 34008 ft 471 kts 332°
2026-05-04 21:00 -6.76794 -57.56995 34008 ft 471 kts 332°
2026-05-04 21:01 -6.71008 -57.60098 34008 ft 471 kts 332°
2026-05-04 21:01 -6.65169 -57.63229 34008 ft 471 kts 332°
2026-05-04 21:02 -6.59391 -57.66326 34008 ft 471 kts 332°
2026-05-04 21:02 -6.53598 -57.69430 34008 ft 471 kts 332°
2026-05-04 21:03 -6.47758 -57.72559 34008 ft 471 kts 332°
2026-05-04 21:03 -6.41985 -57.75651 34008 ft 471 kts 332°
2026-05-04 21:04 -6.36145 -57.78778 34008 ft 471 kts 332°
2026-05-04 21:04 -6.30387 -57.81860 34008 ft 471 kts 332°
2026-05-04 21:05 -6.24577 -57.84969 34008 ft 471 kts 332°
2026-05-04 21:05 -6.18767 -57.88077 34008 ft 471 kts 332°
2026-05-04 21:06 -6.12967 -57.91180 34008 ft 471 kts 332°
2026-05-04 21:06 -6.07146 -57.94293 34008 ft 471 kts 332°
2026-05-04 21:07 -6.01378 -57.97377 34008 ft 471 kts 332°
2026-05-04 21:07 -5.95555 -58.00489 34008 ft 471 kts 332°
2026-05-04 21:08 -5.89722 -58.03606 34008 ft 471 kts 332°
2026-05-04 21:08 -5.83925 -58.06703 34008 ft 471 kts 332°
2026-05-04 21:09 -5.78093 -58.09819 34008 ft 471 kts 332°
2026-05-04 21:09 -5.72313 -58.12905 34008 ft 471 kts 332°
2026-05-04 21:10 -5.66511 -58.16003 34008 ft 471 kts 332°
2026-05-04 21:10 -5.60699 -58.19105 34008 ft 471 kts 332°
2026-05-04 21:11 -5.54859 -58.22221 34008 ft 471 kts 332°
2026-05-04 21:11 -5.49058 -58.25316 34008 ft 471 kts 332°
2026-05-04 21:12 -5.43280 -58.28398 34008 ft 471 kts 332°
2026-05-04 21:12 -5.37444 -58.31511 34008 ft 471 kts 332°
2026-05-04 21:13 -5.31637 -58.34606 34008 ft 471 kts 332°
2026-05-04 21:13 -5.25809 -58.37713 34008 ft 471 kts 332°
2026-05-04 21:14 -5.19993 -58.40813 34008 ft 471 kts 332°
2026-05-04 21:14 -5.14168 -58.43916 34008 ft 471 kts 332°
2026-05-04 21:15 -5.08370 -58.47005 34008 ft 471 kts 332°
2026-05-04 21:15 -5.02546 -58.50107 34008 ft 471 kts 332°
2026-05-04 21:16 -4.96711 -58.53214 34008 ft 470 kts 332°
2026-05-04 21:16 -4.90901 -58.56307 34008 ft 470 kts 332°
2026-05-04 21:17 -4.85101 -58.59394 34008 ft 470 kts 332°
2026-05-04 21:17 -4.79292 -58.62485 34008 ft 470 kts 332°
2026-05-04 21:18 -4.73495 -58.65570 34008 ft 470 kts 332°
2026-05-04 21:18 -4.67655 -58.68677 34008 ft 470 kts 332°
2026-05-04 21:19 -4.61877 -58.71750 34008 ft 470 kts 332°
2026-05-04 21:19 -4.56041 -58.74853 34008 ft 470 kts 332°
2026-05-04 21:20 -4.50241 -58.77884 34008 ft 470 kts 332°
2026-05-04 21:20 -4.44395 -58.80918 34008 ft 470 kts 332°
2026-05-04 21:21 -4.38578 -58.83939 34008 ft 470 kts 332°
2026-05-04 21:21 -4.32724 -58.86979 34008 ft 470 kts 332°
2026-05-04 21:22 -4.26893 -58.90009 34008 ft 470 kts 332°
2026-05-04 21:22 -4.21097 -58.93019 34008 ft 470 kts 332°
2026-05-04 21:23 -4.15282 -58.96039 34008 ft 470 kts 332°
2026-05-04 21:23 -4.09414 -58.99087 34008 ft 470 kts 332°
2026-05-04 21:24 -4.03594 -59.02109 34008 ft 470 kts 332°
2026-05-04 21:24 -3.97748 -59.05144 34008 ft 470 kts 332°
2026-05-04 21:25 -3.91900 -59.08180 34009 ft 470 kts 332°
2026-05-04 21:25 -3.86053 -59.11215 34009 ft 470 kts 332°
2026-05-04 21:26 -3.80212 -59.14246 34009 ft 470 kts 332°
2026-05-04 21:26 -3.74385 -59.17270 34009 ft 470 kts 332°
2026-05-04 21:27 -3.68550 -59.20297 34009 ft 470 kts 332°
2026-05-04 21:27 -3.62747 -59.23307 34009 ft 470 kts 332°
2026-05-04 21:28 -3.56891 -59.26344 34009 ft 470 kts 332°
2026-05-04 21:28 -3.51067 -59.29364 34008 ft 470 kts 332°
2026-05-04 21:29 -3.45208 -59.32402 34008 ft 470 kts 332°
2026-05-04 21:29 -3.39396 -59.35415 34008 ft 470 kts 332°
2026-05-04 21:30 -3.33512 -59.38469 34008 ft 470 kts 332°
2026-05-04 21:30 -3.27692 -59.41492 34008 ft 470 kts 332°
2026-05-04 21:31 -3.18939 -59.46036 34008 ft 470 kts 332°
2026-05-04 21:32 -3.13126 -59.49051 34008 ft 470 kts 332°
2026-05-04 21:32 -3.07299 -59.52072 34008 ft 470 kts 332°
2026-05-04 21:33 -3.01491 -59.55123 34008 ft 470 kts 332°
2026-05-04 21:33 -2.95679 -59.58215 34008 ft 470 kts 332°
2026-05-04 21:34 -2.89868 -59.61309 34008 ft 470 kts 332°
2026-05-04 21:34 -2.84080 -59.64388 34008 ft 470 kts 332°
2026-05-04 21:35 -2.78295 -59.67463 34008 ft 470 kts 332°
2026-05-04 21:35 -2.72499 -59.70544 34008 ft 470 kts 332°
2026-05-04 21:36 -2.66705 -59.73624 34008 ft 470 kts 332°
2026-05-04 21:36 -2.60890 -59.76714 34008 ft 470 kts 332°
2026-05-04 21:37 -2.55099 -59.79791 34008 ft 470 kts 332°
2026-05-04 21:37 -2.49308 -59.82867 34008 ft 470 kts 332°
2026-05-04 21:38 -2.43532 -59.85936 34008 ft 470 kts 332°
2026-05-04 21:38 -2.37703 -59.89031 34008 ft 470 kts 332°
2026-05-04 21:39 -2.31889 -59.92119 34008 ft 470 kts 332°
2026-05-04 21:39 -2.26074 -59.95233 34001 ft 470 kts 329°
2026-05-04 21:40 -2.20971 -59.99316 34011 ft 471 kts 316°
2026-05-04 21:40 -2.16231 -60.03849 34008 ft 470 kts 316°
2026-05-04 21:41 -2.11497 -60.08382 34008 ft 470 kts 316°
2026-05-04 21:41 -2.06747 -60.12929 34008 ft 470 kts 316°
2026-05-04 21:42 -2.02022 -60.17450 34008 ft 470 kts 316°
2026-05-04 21:42 -1.97271 -60.21987 34008 ft 470 kts 316°
2026-05-04 21:43 -1.92489 -60.26551 34008 ft 470 kts 316°
2026-05-04 21:43 -1.87744 -60.31080 34008 ft 470 kts 316°
2026-05-04 21:44 -1.83029 -60.35581 34008 ft 470 kts 316°
2026-05-04 21:44 -1.78299 -60.40095 34008 ft 470 kts 316°
2026-05-04 21:45 -1.73564 -60.44614 34008 ft 470 kts 316°
2026-05-04 21:45 -1.68824 -60.49138 34008 ft 470 kts 316°
2026-05-04 21:46 -1.64054 -60.53689 34008 ft 470 kts 316°
2026-05-04 21:46 -1.59300 -60.58225 34008 ft 470 kts 316°
2026-05-04 21:47 -1.54597 -60.62713 34008 ft 470 kts 316°
2026-05-04 21:47 -1.49830 -60.67260 34008 ft 470 kts 316°
2026-05-04 21:48 -1.45122 -60.71752 34008 ft 470 kts 316°
2026-05-04 21:48 -1.40353 -60.76300 34008 ft 470 kts 316°
2026-05-04 21:49 -1.35598 -60.80840 34007 ft 470 kts 315°
2026-05-04 21:49 -1.30948 -60.85462 34008 ft 470 kts 315°
2026-05-04 21:50 -1.26308 -60.90091 34008 ft 470 kts 315°
2026-05-04 21:50 -1.21678 -60.94704 34008 ft 470 kts 315°
2026-05-04 21:51 -1.17030 -60.99330 34008 ft 470 kts 315°
2026-05-04 21:51 -1.12379 -61.03959 34008 ft 470 kts 315°
2026-05-04 21:52 -1.07680 -61.08632 34008 ft 470 kts 315°
2026-05-04 21:52 -1.03072 -61.13215 34008 ft 470 kts 315°
2026-05-04 21:53 -0.98413 -61.17849 34008 ft 470 kts 315°
2026-05-04 21:53 -0.93759 -61.22476 34008 ft 470 kts 315°
2026-05-04 21:54 -0.89103 -61.27107 34008 ft 470 kts 315°
2026-05-04 21:54 -0.84491 -61.31692 34008 ft 470 kts 315°
2026-05-04 21:55 -0.79852 -61.36305 34008 ft 470 kts 315°
2026-05-04 21:55 -0.75218 -61.40912 34008 ft 470 kts 315°
2026-05-04 21:56 -0.70567 -61.45536 34008 ft 470 kts 315°
2026-05-04 21:56 -0.65922 -61.50155 34008 ft 470 kts 315°
2026-05-04 21:57 -0.61265 -61.54784 34008 ft 470 kts 315°
2026-05-04 21:57 -0.56652 -61.59370 34008 ft 470 kts 315°
2026-05-04 21:58 -0.52001 -61.63994 34008 ft 470 kts 315°
2026-05-04 21:58 -0.47327 -61.68640 34008 ft 470 kts 315°
2026-05-04 21:59 -0.42668 -61.73272 34008 ft 470 kts 315°
2026-05-04 21:59 -0.38017 -61.77895 34008 ft 470 kts 315°
2026-05-04 22:00 -0.33372 -61.82511 34008 ft 470 kts 315°
2026-05-04 22:00 -0.28707 -61.87149 34008 ft 470 kts 315°
2026-05-04 22:01 -0.24059 -61.91768 34008 ft 469 kts 315°
2026-05-04 22:01 -0.19400 -61.96400 34008 ft 469 kts 315°
2026-05-04 22:02 -0.14758 -62.01014 34008 ft 469 kts 315°
2026-05-04 22:02 -0.10142 -62.05602 34008 ft 469 kts 315°
2026-05-04 22:03 -0.05524 -62.10192 34008 ft 469 kts 315°
2026-05-04 22:03 -0.00872 -62.14816 34008 ft 469 kts 315°
2026-05-04 22:04 0.03756 -62.19416 34008 ft 469 kts 315°
2026-05-04 22:04 0.08424 -62.24056 34008 ft 469 kts 315°
2026-05-04 22:05 0.13048 -62.28653 34008 ft 469 kts 315°
2026-05-04 22:05 0.17664 -62.33240 34008 ft 469 kts 315°
2026-05-04 22:06 0.22308 -62.37857 34008 ft 469 kts 315°
2026-05-04 22:06 0.26967 -62.42488 34008 ft 469 kts 315°
2026-05-04 22:07 0.31598 -62.47091 34008 ft 469 kts 315°
2026-05-04 22:07 0.36229 -62.51694 34008 ft 469 kts 315°
2026-05-04 22:08 0.40878 -62.56316 34008 ft 469 kts 315°
2026-05-04 22:08 0.45483 -62.60893 34008 ft 469 kts 315°
2026-05-04 22:09 0.50144 -62.65527 34008 ft 469 kts 315°
2026-05-04 22:09 0.54746 -62.70101 34008 ft 469 kts 315°
2026-05-04 22:10 0.59388 -62.74716 34008 ft 469 kts 315°
2026-05-04 22:10 0.64017 -62.79317 34008 ft 469 kts 315°
2026-05-04 22:11 0.68669 -62.83942 34008 ft 469 kts 315°
2026-05-04 22:11 0.73310 -62.88557 34008 ft 469 kts 315°
2026-05-04 22:12 0.77943 -62.93163 34008 ft 469 kts 315°
2026-05-04 22:12 0.82578 -62.97770 34008 ft 469 kts 315°
2026-05-04 22:13 0.87218 -63.02384 34008 ft 469 kts 315°
2026-05-04 22:13 0.91839 -63.06979 34008 ft 469 kts 315°
2026-05-04 22:14 0.96455 -63.11569 34008 ft 469 kts 315°
2026-05-04 22:14 1.01117 -63.16205 34008 ft 469 kts 315°
2026-05-04 22:15 1.05747 -63.20809 34008 ft 469 kts 315°
2026-05-04 22:15 1.10382 -63.25418 34008 ft 469 kts 315°
2026-05-04 22:16 1.15029 -63.30041 34008 ft 469 kts 315°
2026-05-04 22:16 1.19662 -63.34633 34002 ft 469 kts 317°
2026-05-04 22:17 1.24783 -63.38686 34008 ft 469 kts 323°
2026-05-04 22:17 1.29960 -63.42595 34008 ft 469 kts 323°
2026-05-04 22:18 1.35183 -63.46542 34008 ft 469 kts 322°
2026-05-04 22:18 1.40397 -63.50484 34008 ft 469 kts 322°
2026-05-04 22:19 1.45612 -63.54428 34008 ft 469 kts 322°
2026-05-04 22:19 1.50831 -63.58376 34008 ft 469 kts 322°
2026-05-04 22:20 1.56026 -63.62307 34008 ft 469 kts 322°
2026-05-04 22:20 1.61273 -63.66277 34008 ft 469 kts 322°
2026-05-04 22:21 1.66495 -63.70229 34008 ft 469 kts 322°
2026-05-04 22:21 1.71712 -63.74177 34008 ft 469 kts 322°
2026-05-04 22:22 1.76920 -63.78118 34008 ft 469 kts 322°
2026-05-04 22:22 1.82101 -63.82040 34008 ft 469 kts 322°
2026-05-04 22:23 1.87312 -63.85985 34008 ft 469 kts 322°
2026-05-04 22:23 1.92497 -63.89909 34008 ft 469 kts 322°
2026-05-04 22:24 1.97746 -63.93883 34008 ft 469 kts 322°
2026-05-04 22:24 2.03074 -63.97628 34009 ft 469 kts 327°
2026-05-04 22:25 2.08593 -64.01208 34008 ft 469 kts 327°
2026-05-04 22:25 2.14049 -64.04771 34008 ft 469 kts 327°
2026-05-04 22:26 2.19530 -64.08365 34008 ft 469 kts 326°
2026-05-04 22:26 2.24947 -64.11924 34008 ft 469 kts 326°
2026-05-04 22:27 2.30442 -64.15538 34008 ft 469 kts 326°
2026-05-04 22:27 2.35894 -64.19126 34008 ft 469 kts 326°
2026-05-04 22:28 2.41377 -64.22736 34008 ft 469 kts 326°
2026-05-04 22:28 2.46837 -64.26331 34008 ft 469 kts 326°
2026-05-04 22:29 2.52311 -64.29937 34007 ft 469 kts 326°
2026-05-04 22:29 2.57781 -64.33540 34007 ft 469 kts 326°
2026-05-04 22:30 2.63244 -64.37140 34007 ft 469 kts 326°
2026-05-04 22:30 2.68714 -64.40745 34008 ft 469 kts 326°
2026-05-04 22:31 2.74161 -64.44334 34008 ft 469 kts 326°
2026-05-04 22:31 2.79632 -64.47940 34008 ft 468 kts 326°
2026-05-04 22:32 2.85133 -64.51566 34008 ft 468 kts 326°
2026-05-04 22:32 2.90554 -64.55140 34008 ft 468 kts 326°
2026-05-04 22:33 2.96011 -64.58737 34008 ft 468 kts 326°
2026-05-04 22:33 3.01471 -64.62338 34008 ft 468 kts 326°
2026-05-04 22:34 3.06951 -64.65951 34008 ft 468 kts 326°
2026-05-04 22:34 3.12408 -64.69551 34008 ft 468 kts 326°
2026-05-04 22:35 3.17854 -64.73144 34007 ft 468 kts 326°
2026-05-04 22:35 3.23278 -64.76723 34007 ft 468 kts 326°
2026-05-04 22:36 3.28713 -64.80308 34007 ft 468 kts 326°
2026-05-04 22:36 3.34181 -64.83916 34007 ft 468 kts 326°
2026-05-04 22:37 3.39617 -64.87505 34007 ft 468 kts 326°
2026-05-04 22:37 3.45076 -64.91107 34007 ft 468 kts 326°
2026-05-04 22:38 3.50505 -64.94692 34008 ft 468 kts 326°
2026-05-04 22:38 3.55970 -64.98300 34008 ft 468 kts 326°
2026-05-04 22:39 3.61381 -65.01873 34007 ft 468 kts 326°
2026-05-04 22:39 3.66839 -65.05478 34007 ft 468 kts 326°
2026-05-04 22:40 3.72304 -65.09088 34007 ft 468 kts 326°
2026-05-04 22:40 3.77738 -65.12678 34007 ft 468 kts 326°
2026-05-04 22:41 3.83220 -65.16300 34007 ft 468 kts 326°
2026-05-04 22:41 3.88671 -65.19903 34007 ft 468 kts 326°
2026-05-04 22:42 3.94118 -65.23503 34007 ft 468 kts 326°
2026-05-04 22:42 3.99554 -65.27097 34007 ft 468 kts 326°
2026-05-04 22:43 4.05005 -65.30701 34007 ft 468 kts 326°
2026-05-04 22:43 4.10462 -65.34309 34007 ft 468 kts 326°
2026-05-04 22:44 4.15926 -65.37923 34007 ft 468 kts 326°
2026-05-04 22:44 4.21384 -65.41534 34007 ft 468 kts 326°
2026-05-04 22:45 4.26806 -65.45121 34007 ft 468 kts 326°
2026-05-04 22:45 4.35009 -65.50549 34007 ft 468 kts 326°
2026-05-04 22:46 4.40459 -65.54157 34007 ft 468 kts 326°
2026-05-04 22:46 4.45895 -65.57756 34007 ft 468 kts 326°
2026-05-04 22:47 4.51344 -65.61364 34006 ft 468 kts 326°
2026-05-04 22:47 4.56826 -65.64995 34006 ft 467 kts 326°
2026-05-04 22:48 4.62253 -65.68589 34006 ft 467 kts 326°
2026-05-04 22:48 4.67691 -65.72192 34007 ft 467 kts 326°
2026-05-04 22:49 4.73133 -65.75798 34007 ft 467 kts 326°
2026-05-04 22:49 4.78550 -65.79388 34007 ft 467 kts 326°
2026-05-04 22:50 4.83992 -65.82996 34007 ft 467 kts 326°
2026-05-04 22:50 4.89431 -65.86601 34007 ft 467 kts 326°
2026-05-04 22:51 4.94902 -65.90229 34007 ft 467 kts 326°
2026-05-04 22:51 5.00329 -65.93829 34007 ft 467 kts 326°
2026-05-04 22:52 5.05781 -65.97446 34007 ft 467 kts 326°
2026-05-04 22:52 5.11197 -66.01041 34007 ft 467 kts 326°
2026-05-04 22:53 5.16654 -66.04662 34007 ft 467 kts 326°
2026-05-04 22:53 5.22057 -66.08249 34007 ft 467 kts 326°
2026-05-04 22:54 5.27508 -66.11868 34007 ft 467 kts 326°
2026-05-04 22:54 5.32953 -66.15485 34007 ft 467 kts 326°
2026-05-04 22:55 5.38391 -66.19096 34007 ft 467 kts 326°
2026-05-04 22:55 5.43823 -66.22706 34006 ft 467 kts 326°
2026-05-04 22:56 5.49292 -66.26341 34006 ft 467 kts 326°
2026-05-04 22:56 5.54700 -66.29936 34006 ft 467 kts 326°
2026-05-04 22:57 5.60167 -66.33569 34006 ft 467 kts 326°
2026-05-04 22:57 5.65613 -66.37191 34006 ft 467 kts 326°
2026-05-04 22:58 5.71021 -66.40789 34006 ft 467 kts 326°
2026-05-04 22:58 5.76476 -66.44418 34006 ft 467 kts 326°
2026-05-04 22:59 5.81904 -66.48030 34006 ft 467 kts 326°
2026-05-04 22:59 5.87353 -66.51656 34006 ft 467 kts 326°
2026-05-04 23:00 5.92794 -66.55280 34007 ft 467 kts 326°
2026-05-04 23:00 5.98228 -66.58898 34007 ft 467 kts 326°
2026-05-04 23:01 6.03714 -66.62552 34007 ft 467 kts 326°
2026-05-04 23:01 6.09160 -66.66180 34007 ft 467 kts 326°
2026-05-04 23:02 6.14560 -66.69779 34007 ft 467 kts 326°
2026-05-04 23:02 6.19985 -66.73395 34007 ft 467 kts 326°
2026-05-04 23:03 6.25442 -66.77034 34008 ft 467 kts 326°
2026-05-04 23:03 6.30856 -66.80645 34008 ft 467 kts 326°
2026-05-04 23:04 6.36273 -66.84259 34008 ft 467 kts 326°
2026-05-04 23:04 6.41679 -66.87866 34008 ft 467 kts 326°
2026-05-04 23:05 6.47136 -66.91509 34008 ft 467 kts 326°
2026-05-04 23:05 6.52540 -66.95116 34008 ft 467 kts 326°
2026-05-04 23:06 6.57974 -66.98743 34008 ft 467 kts 326°
2026-05-04 23:06 6.63394 -67.02354 34008 ft 467 kts 326°
2026-05-04 23:07 6.68813 -67.05965 34008 ft 467 kts 326°
2026-05-04 23:07 6.74249 -67.09589 34008 ft 467 kts 326°
2026-05-04 23:08 6.79667 -67.13202 34008 ft 467 kts 326°
2026-05-04 23:08 6.85119 -67.16839 34008 ft 467 kts 326°
2026-05-04 23:09 6.90494 -67.20425 34008 ft 467 kts 326°
2026-05-04 23:09 6.95962 -67.24075 34008 ft 467 kts 326°
2026-05-04 23:10 7.01401 -67.27707 34008 ft 467 kts 326°
2026-05-04 23:10 7.06805 -67.31319 34008 ft 467 kts 326°
2026-05-04 23:11 7.12228 -67.34943 34008 ft 467 kts 326°
2026-05-04 23:11 7.17662 -67.38577 34008 ft 467 kts 326°
2026-05-04 23:12 7.23060 -67.42187 34008 ft 467 kts 326°
2026-05-04 23:12 7.28489 -67.45818 34008 ft 467 kts 326°
2026-05-04 23:13 7.33897 -67.49438 34008 ft 467 kts 326°
2026-05-04 23:13 7.39310 -67.53069 34008 ft 467 kts 326°
2026-05-04 23:14 7.44746 -67.56715 34008 ft 467 kts 326°
2026-05-04 23:14 7.50141 -67.60334 34008 ft 467 kts 326°
2026-05-04 23:15 7.55574 -67.63981 34008 ft 467 kts 326°
2026-05-04 23:15 7.60998 -67.67622 34008 ft 467 kts 326°
2026-05-04 23:16 7.66381 -67.71237 34008 ft 467 kts 326°
2026-05-04 23:16 7.71803 -67.74880 34008 ft 467 kts 326°
2026-05-04 23:17 7.77203 -67.78508 34008 ft 467 kts 326°
2026-05-04 23:17 7.82626 -67.82153 34008 ft 467 kts 326°
2026-05-04 23:18 7.88059 -67.85806 34008 ft 467 kts 326°
2026-05-04 23:18 7.93468 -67.89444 34008 ft 466 kts 326°
2026-05-04 23:19 7.98860 -67.93072 34008 ft 466 kts 326°
2026-05-04 23:19 8.04265 -67.96710 34008 ft 466 kts 326°
2026-05-04 23:20 8.09670 -68.00349 34008 ft 466 kts 326°
2026-05-04 23:20 8.15066 -68.03985 34008 ft 466 kts 326°
2026-05-04 23:21 8.20475 -68.07629 34008 ft 466 kts 326°
2026-05-04 23:21 8.25866 -68.11262 34008 ft 466 kts 326°
2026-05-04 23:22 8.31286 -68.14917 34008 ft 466 kts 326°
2026-05-04 23:22 8.36666 -68.18546 34008 ft 466 kts 326°
2026-05-04 23:23 8.42070 -68.22192 34008 ft 466 kts 326°
2026-05-04 23:23 8.47475 -68.25841 34008 ft 466 kts 326°
2026-05-04 23:24 8.52886 -68.29494 34008 ft 466 kts 326°
2026-05-04 23:24 8.58288 -68.33142 34008 ft 466 kts 326°
2026-05-04 23:25 8.63680 -68.36785 34008 ft 466 kts 326°
2026-05-04 23:25 8.69099 -68.40448 34008 ft 466 kts 326°
2026-05-04 23:26 8.74492 -68.44094 34008 ft 466 kts 326°
2026-05-04 23:26 8.79894 -68.47748 34008 ft 466 kts 326°
2026-05-04 23:27 8.85277 -68.51390 34008 ft 466 kts 326°
2026-05-04 23:27 8.90664 -68.55035 34008 ft 466 kts 326°
2026-05-04 23:28 8.96079 -68.58702 34008 ft 466 kts 326°
2026-05-04 23:28 9.01487 -68.62365 34008 ft 466 kts 326°
2026-05-04 23:29 9.06877 -68.66017 34008 ft 466 kts 326°
2026-05-04 23:29 9.12250 -68.69659 34008 ft 466 kts 326°
2026-05-04 23:30 9.17657 -68.73325 34008 ft 466 kts 326°
2026-05-04 23:30 9.23076 -68.77000 34008 ft 466 kts 326°
2026-05-04 23:31 9.28459 -68.80653 34008 ft 466 kts 326°
2026-05-04 23:31 9.33840 -68.84306 34008 ft 466 kts 326°
2026-05-04 23:32 9.39220 -68.87959 34008 ft 466 kts 326°
2026-05-04 23:32 9.44619 -68.91627 34008 ft 466 kts 326°
2026-05-04 23:33 9.50028 -68.95303 34008 ft 466 kts 326°
2026-05-04 23:33 9.55419 -68.98968 34008 ft 466 kts 326°
2026-05-04 23:34 9.60804 -69.02630 34008 ft 466 kts 326°
2026-05-04 23:34 9.66196 -69.06298 34008 ft 466 kts 326°
2026-05-04 23:35 9.71582 -69.09963 34008 ft 466 kts 326°
2026-05-04 23:35 9.76969 -69.13630 34008 ft 466 kts 326°
2026-05-04 23:36 9.82364 -69.17303 34008 ft 466 kts 326°
2026-05-04 23:36 9.87734 -69.20962 34008 ft 466 kts 326°
2026-05-04 23:37 9.93131 -69.24639 34008 ft 466 kts 326°
2026-05-04 23:37 9.98501 -69.28301 34008 ft 466 kts 326°
2026-05-04 23:38 10.03909 -69.31988 34008 ft 466 kts 326°
2026-05-04 23:38 10.09294 -69.35663 34008 ft 466 kts 326°
2026-05-04 23:39 10.14717 -69.39364 34008 ft 466 kts 326°
2026-05-04 23:39 10.20115 -69.43049 34008 ft 466 kts 326°
2026-05-04 23:40 10.25489 -69.46719 34008 ft 466 kts 326°
2026-05-04 23:40 10.30865 -69.50393 34008 ft 466 kts 326°
2026-05-04 23:41 10.36261 -69.54083 34008 ft 466 kts 326°
2026-05-04 23:41 10.41641 -69.57764 34008 ft 466 kts 326°
2026-05-04 23:42 10.47032 -69.61455 34008 ft 466 kts 326°
2026-05-04 23:42 10.52421 -69.65144 34008 ft 466 kts 326°
2026-05-04 23:43 10.57798 -69.68828 34008 ft 466 kts 326°
2026-05-04 23:43 10.63165 -69.72501 34008 ft 466 kts 326°
2026-05-04 23:44 10.68576 -69.76196 34008 ft 466 kts 326°
2026-05-04 23:44 10.73943 -69.79877 34008 ft 466 kts 326°
2026-05-04 23:45 10.79351 -69.83591 34008 ft 466 kts 326°
2026-05-04 23:45 10.84719 -69.87279 34008 ft 466 kts 326°
2026-05-04 23:46 10.90099 -69.90977 34008 ft 466 kts 326°
2026-05-04 23:46 10.95500 -69.94690 34008 ft 466 kts 326°
2026-05-04 23:47 11.00847 -69.98368 34008 ft 466 kts 326°
2026-05-04 23:47 11.06235 -70.02077 34008 ft 466 kts 326°
2026-05-04 23:48 11.11640 -70.05794 34009 ft 466 kts 326°
2026-05-04 23:48 11.17009 -70.09488 34009 ft 466 kts 326°
2026-05-04 23:49 11.22379 -70.13184 34009 ft 466 kts 326°
2026-05-04 23:49 11.27769 -70.16896 34009 ft 466 kts 326°
2026-05-04 23:50 11.33155 -70.20607 34009 ft 465 kts 326°
2026-05-04 23:50 11.38534 -70.24314 34009 ft 465 kts 326°
2026-05-04 23:51 11.43891 -70.28008 34009 ft 465 kts 326°
2026-05-04 23:51 11.49265 -70.31716 34009 ft 465 kts 326°
2026-05-04 23:52 11.54641 -70.35426 34009 ft 465 kts 326°
2026-05-04 23:52 11.60000 -70.39127 34009 ft 465 kts 326°
2026-05-04 23:53 11.65342 -70.42836 34009 ft 465 kts 326°
2026-05-04 23:53 11.70694 -70.46555 34008 ft 465 kts 326°
2026-05-04 23:54 11.76070 -70.50279 34008 ft 465 kts 326°
2026-05-04 23:54 11.81444 -70.54002 34008 ft 465 kts 326°
2026-05-04 23:55 11.86778 -70.57700 34008 ft 465 kts 326°
2026-05-04 23:56 11.94824 -70.63282 34008 ft 465 kts 326°
2026-05-04 23:56 12.00183 -70.67003 34008 ft 465 kts 326°
2026-05-04 23:57 12.05547 -70.70727 34008 ft 465 kts 326°
2026-05-04 23:57 12.10912 -70.74456 34008 ft 465 kts 326°
2026-05-04 23:58 12.16284 -70.78191 34008 ft 465 kts 326°
2026-05-04 23:58 12.21609 -70.81895 34008 ft 465 kts 326°
2026-05-04 23:59 12.26979 -70.85630 34008 ft 465 kts 326°
2026-05-04 23:59 12.32332 -70.89356 34008 ft 465 kts 326°
2026-05-05 00:00 12.37697 -70.93091 34008 ft 465 kts 326°
2026-05-05 00:00 12.43040 -70.96812 34008 ft 465 kts 326°
2026-05-05 00:01 12.48405 -71.00552 34008 ft 465 kts 326°
2026-05-05 00:01 12.53815 -71.04231 34008 ft 465 kts 327°
2026-05-05 00:02 12.59246 -71.07838 34009 ft 465 kts 327°
2026-05-05 00:02 12.64692 -71.11463 34009 ft 465 kts 327°
2026-05-05 00:03 12.70111 -71.15076 34009 ft 465 kts 327°
2026-05-05 00:03 12.75567 -71.18717 34009 ft 465 kts 327°
2026-05-05 00:04 12.80968 -71.22325 34009 ft 465 kts 327°
2026-05-05 00:04 12.86427 -71.25974 34009 ft 465 kts 327°
2026-05-05 00:05 12.91597 -71.29431 34009 ft 465 kts 327°
2026-05-05 00:05 12.97034 -71.33070 34009 ft 465 kts 327°
2026-05-05 00:06 13.02447 -71.36694 34009 ft 465 kts 327°
2026-05-05 00:06 13.07855 -71.40316 34009 ft 465 kts 327°
2026-05-05 00:07 13.13294 -71.43962 34009 ft 465 kts 327°
2026-05-05 00:07 13.18683 -71.47573 34008 ft 465 kts 327°
2026-05-05 00:08 13.24102 -71.51207 34008 ft 465 kts 327°
2026-05-05 00:08 13.29523 -71.54845 34008 ft 465 kts 327°
2026-05-05 00:09 13.34937 -71.58478 34008 ft 465 kts 327°
2026-05-05 00:09 13.40363 -71.62123 34008 ft 465 kts 327°
2026-05-05 00:10 13.45754 -71.65745 34008 ft 465 kts 326°
2026-05-05 00:10 13.51172 -71.69389 34008 ft 465 kts 326°
2026-05-05 00:11 13.56583 -71.73029 34008 ft 465 kts 326°
2026-05-05 00:11 13.61995 -71.76672 34008 ft 465 kts 326°
2026-05-05 00:12 13.67405 -71.80315 34008 ft 465 kts 326°
2026-05-05 00:12 13.72840 -71.83978 34008 ft 465 kts 326°
2026-05-05 00:13 13.78226 -71.87609 34008 ft 465 kts 326°
2026-05-05 00:13 13.83650 -71.91269 34008 ft 465 kts 326°
2026-05-05 00:14 13.89044 -71.94908 34008 ft 465 kts 327°
2026-05-05 00:14 13.94460 -71.98544 34008 ft 465 kts 327°
2026-05-05 00:15 13.99906 -72.02202 34008 ft 465 kts 327°
2026-05-05 00:15 14.05301 -72.05827 34008 ft 465 kts 327°
2026-05-05 00:16 14.10747 -72.09490 34008 ft 465 kts 327°
2026-05-05 00:16 14.14710 -72.12157 34008 ft 465 kts 327°
2026-05-05 00:17 14.20104 -72.15788 34008 ft 465 kts 327°
2026-05-05 00:17 14.25546 -72.19454 34008 ft 465 kts 327°
2026-05-05 00:18 14.30962 -72.23105 34008 ft 465 kts 327°
2026-05-05 00:18 14.36341 -72.26752 34008 ft 465 kts 326°
2026-05-05 00:19 14.41736 -72.30447 34008 ft 465 kts 326°
2026-05-05 00:19 14.47117 -72.34132 34008 ft 465 kts 326°
2026-05-05 00:20 14.52541 -72.37848 34008 ft 464 kts 326°
2026-05-05 00:20 14.57915 -72.41531 34008 ft 464 kts 326°
2026-05-05 00:21 14.63271 -72.45203 34008 ft 464 kts 326°
2026-05-05 00:21 14.68697 -72.48905 34008 ft 464 kts 326°
2026-05-05 00:22 14.74078 -72.52579 34008 ft 464 kts 326°
2026-05-05 00:22 14.79467 -72.56260 34008 ft 464 kts 326°
2026-05-05 00:23 14.84835 -72.59930 34008 ft 464 kts 326°
2026-05-05 00:23 14.90238 -72.63625 34008 ft 464 kts 326°
2026-05-05 00:24 14.95624 -72.67311 34008 ft 464 kts 326°
2026-05-05 00:24 15.01007 -72.70998 34008 ft 464 kts 326°
2026-05-05 00:25 15.06379 -72.74680 34008 ft 464 kts 326°
2026-05-05 00:25 15.11793 -72.78392 34008 ft 464 kts 326°
2026-05-05 00:26 15.17151 -72.82069 34008 ft 464 kts 326°
2026-05-05 00:26 15.22533 -72.85765 34008 ft 464 kts 326°
2026-05-05 00:27 15.27939 -72.89479 34008 ft 464 kts 326°
2026-05-05 00:27 15.33318 -72.93177 34008 ft 464 kts 326°
2026-05-05 00:28 15.38692 -72.96873 34008 ft 464 kts 326°
2026-05-05 00:28 15.44099 -73.00594 34008 ft 464 kts 326°
2026-05-05 00:29 15.49475 -73.04296 34008 ft 464 kts 326°
2026-05-05 00:29 15.54858 -73.08006 34008 ft 464 kts 326°
2026-05-05 00:30 15.60226 -73.11700 34008 ft 463 kts 326°
2026-05-05 00:30 15.65595 -73.15392 34008 ft 463 kts 326°
2026-05-05 00:31 15.70998 -73.19111 34008 ft 463 kts 326°
2026-05-05 00:31 15.76383 -73.22820 34008 ft 463 kts 326°
2026-05-05 00:32 15.81752 -73.26520 34008 ft 463 kts 326°
2026-05-05 00:32 15.87143 -73.30240 34008 ft 463 kts 326°
2026-05-05 00:33 15.92505 -73.33940 34008 ft 463 kts 326°
2026-05-05 00:33 15.97892 -73.37661 34008 ft 463 kts 326°
2026-05-05 00:34 16.03253 -73.41366 34008 ft 463 kts 326°
2026-05-05 00:34 16.08610 -73.45071 34008 ft 463 kts 326°
2026-05-05 00:35 16.13999 -73.48800 34008 ft 463 kts 326°
2026-05-05 00:35 16.19363 -73.52515 34008 ft 463 kts 326°
2026-05-05 00:36 16.24751 -73.56248 34008 ft 463 kts 326°
2026-05-05 00:36 16.30115 -73.59968 34008 ft 463 kts 326°
2026-05-05 00:37 16.35503 -73.63706 34008 ft 463 kts 326°
2026-05-05 00:37 16.40875 -73.67414 34008 ft 463 kts 326°
2026-05-05 00:38 16.46249 -73.71115 34008 ft 463 kts 326°
2026-05-05 00:38 16.51625 -73.74821 34008 ft 463 kts 326°
2026-05-05 00:39 16.57008 -73.78535 34008 ft 463 kts 326°
2026-05-05 00:39 16.62415 -73.82268 34008 ft 463 kts 326°
2026-05-05 00:40 16.67791 -73.85983 34008 ft 463 kts 326°
2026-05-05 00:40 16.73134 -73.89677 34008 ft 463 kts 326°
2026-05-05 00:41 16.78518 -73.93402 34008 ft 463 kts 326°
2026-05-05 00:41 16.83879 -73.97114 34008 ft 463 kts 326°
2026-05-05 00:42 16.89253 -74.00838 34008 ft 463 kts 326°
2026-05-05 00:42 16.94655 -74.04583 34008 ft 463 kts 326°
2026-05-05 00:43 17.00022 -74.08307 34008 ft 463 kts 326°
2026-05-05 00:43 17.05384 -74.12030 34008 ft 463 kts 326°
2026-05-05 00:44 17.10763 -74.15767 34008 ft 463 kts 326°
2026-05-05 00:44 17.16141 -74.19506 34008 ft 463 kts 326°
2026-05-05 00:45 17.21516 -74.23247 34008 ft 463 kts 326°
2026-05-05 00:45 17.26898 -74.26994 34008 ft 463 kts 326°
2026-05-05 00:46 17.32243 -74.30719 34008 ft 463 kts 326°
2026-05-05 00:46 17.37626 -74.34473 34008 ft 463 kts 326°
2026-05-05 00:47 17.42970 -74.38201 34008 ft 463 kts 326°
2026-05-05 00:47 17.48350 -74.41958 34008 ft 463 kts 326°
2026-05-05 00:48 17.53699 -74.45696 34008 ft 463 kts 326°
2026-05-05 00:48 17.59082 -74.49461 34008 ft 463 kts 326°
2026-05-05 00:49 17.64453 -74.53219 34008 ft 463 kts 326°
2026-05-05 00:49 17.69793 -74.56959 34008 ft 462 kts 326°
2026-05-05 00:50 17.75184 -74.60737 34008 ft 462 kts 326°
2026-05-05 00:50 17.80550 -74.64500 34008 ft 462 kts 326°
2026-05-05 00:51 17.85883 -74.68243 34008 ft 462 kts 326°
2026-05-05 00:51 17.91255 -74.72017 34008 ft 462 kts 326°
2026-05-05 00:52 17.96607 -74.75778 34008 ft 462 kts 326°
2026-05-05 00:52 18.01966 -74.79548 34008 ft 462 kts 326°
2026-05-05 00:53 18.07324 -74.83319 34008 ft 462 kts 326°
2026-05-05 00:53 18.12669 -74.87085 34008 ft 462 kts 326°
2026-05-05 00:54 18.18037 -74.90869 34008 ft 462 kts 326°
2026-05-05 00:54 18.23373 -74.94634 34008 ft 462 kts 326°
2026-05-05 00:55 18.28722 -74.98411 34008 ft 462 kts 326°
2026-05-05 00:55 18.34107 -75.02216 34008 ft 462 kts 326°
2026-05-05 00:56 18.39416 -75.05970 34008 ft 462 kts 326°
2026-05-05 00:56 18.44771 -75.09759 34008 ft 462 kts 326°
2026-05-05 00:57 18.50130 -75.13555 34008 ft 462 kts 326°
2026-05-05 00:57 18.55460 -75.17333 34008 ft 462 kts 326°
2026-05-05 00:58 18.60725 -75.21305 34008 ft 462 kts 323°
2026-05-05 00:58 18.65894 -75.25353 34008 ft 462 kts 323°
2026-05-05 00:59 18.71053 -75.29382 34008 ft 462 kts 323°
2026-05-05 00:59 18.76260 -75.33442 34009 ft 462 kts 323°
2026-05-05 01:00 18.81412 -75.37459 34009 ft 462 kts 323°
2026-05-05 01:00 18.86619 -75.41519 34009 ft 462 kts 323°
2026-05-05 01:01 18.91797 -75.45559 34009 ft 462 kts 323°
2026-05-05 01:01 18.96941 -75.49575 34009 ft 462 kts 323°
2026-05-05 01:02 19.02118 -75.53620 34009 ft 462 kts 323°
2026-05-05 01:02 19.07305 -75.57675 34009 ft 462 kts 323°
2026-05-05 01:03 19.12472 -75.61719 34009 ft 462 kts 323°
2026-05-05 01:03 19.17623 -75.65752 34009 ft 462 kts 323°
2026-05-05 01:04 19.22799 -75.69808 34009 ft 462 kts 323°
2026-05-05 01:04 19.30540 -75.75881 34009 ft 462 kts 323°
2026-05-05 01:05 19.35707 -75.79939 34009 ft 462 kts 323°
2026-05-05 01:05 19.40858 -75.83987 34009 ft 462 kts 323°
2026-05-05 01:06 19.46012 -75.88041 34008 ft 462 kts 323°
2026-05-05 01:06 19.51203 -75.92127 34008 ft 462 kts 323°
2026-05-05 01:07 19.56360 -75.96190 34008 ft 462 kts 323°
2026-05-05 01:07 19.61505 -76.00246 34008 ft 462 kts 323°
2026-05-05 01:08 19.66676 -76.04328 34008 ft 462 kts 323°
2026-05-05 01:08 19.71796 -76.08374 34008 ft 461 kts 323°
2026-05-05 01:09 19.76990 -76.12480 34008 ft 461 kts 323°
2026-05-05 01:09 19.82144 -76.16560 34007 ft 461 kts 323°
2026-05-05 01:10 19.87298 -76.20641 34007 ft 461 kts 323°
2026-05-05 01:10 19.92443 -76.24719 34007 ft 461 kts 323°
2026-05-05 01:11 19.97594 -76.28806 34007 ft 461 kts 323°
2026-05-05 01:11 20.02768 -76.32914 34007 ft 461 kts 323°
2026-05-05 01:12 20.07892 -76.36986 34007 ft 461 kts 323°
2026-05-05 01:12 20.13024 -76.41067 34007 ft 461 kts 323°
2026-05-05 01:13 20.18154 -76.45152 34007 ft 461 kts 323°
2026-05-05 01:13 20.23297 -76.49248 34007 ft 461 kts 323°
2026-05-05 01:14 20.28445 -76.53352 34008 ft 461 kts 323°
2026-05-05 01:14 20.33600 -76.57467 34008 ft 461 kts 323°
2026-05-05 01:15 20.38745 -76.61577 34008 ft 461 kts 323°
2026-05-05 01:15 20.43857 -76.65659 34008 ft 461 kts 323°
2026-05-05 01:16 20.49000 -76.69758 34008 ft 461 kts 323°
2026-05-05 01:16 20.54164 -76.73878 34008 ft 461 kts 323°
2026-05-05 01:17 20.59274 -76.77959 34008 ft 461 kts 323°
2026-05-05 01:17 20.64427 -76.82078 34008 ft 461 kts 323°
2026-05-05 01:18 20.69569 -76.86192 34008 ft 461 kts 323°
2026-05-05 01:18 20.74681 -76.90285 34009 ft 461 kts 323°
2026-05-05 01:19 20.79807 -76.94392 34008 ft 461 kts 323°
2026-05-05 01:19 20.84913 -76.98489 34008 ft 460 kts 323°
2026-05-05 01:20 20.90041 -77.02606 34008 ft 460 kts 323°
2026-05-05 01:20 20.95168 -77.06725 34008 ft 460 kts 323°
2026-05-05 01:21 21.00283 -77.10839 34008 ft 460 kts 323°
2026-05-05 01:21 21.05404 -77.14961 34008 ft 461 kts 323°
2026-05-05 01:22 21.10530 -77.19090 34008 ft 460 kts 323°
2026-05-05 01:22 21.15663 -77.23230 34008 ft 460 kts 323°
2026-05-05 01:23 21.20756 -77.27340 34008 ft 461 kts 323°
2026-05-05 01:23 21.25892 -77.31489 34008 ft 461 kts 323°
2026-05-05 01:24 21.31016 -77.35632 34008 ft 460 kts 323°
2026-05-05 01:24 21.36148 -77.39784 34008 ft 460 kts 323°
2026-05-05 01:25 21.41244 -77.43915 34008 ft 460 kts 323°
2026-05-05 01:25 21.46349 -77.48063 34008 ft 460 kts 323°
2026-05-05 01:26 21.51483 -77.52238 34008 ft 460 kts 323°
2026-05-05 01:26 21.56598 -77.56402 34008 ft 460 kts 323°
2026-05-05 01:27 21.61705 -77.60563 34008 ft 460 kts 323°
2026-05-05 01:27 21.66805 -77.64722 34008 ft 460 kts 323°
2026-05-05 01:28 21.71903 -77.68883 34008 ft 460 kts 322°
2026-05-05 01:28 21.77023 -77.73065 34008 ft 460 kts 322°
2026-05-05 01:29 21.82148 -77.77257 34008 ft 460 kts 322°
2026-05-05 01:29 21.87282 -77.81458 34008 ft 460 kts 322°
2026-05-05 01:30 21.92385 -77.85648 34008 ft 460 kts 322°
2026-05-05 01:30 21.97448 -77.89832 34008 ft 460 kts 322°
2026-05-05 01:31 22.02550 -77.94051 34008 ft 460 kts 322°
2026-05-05 01:31 22.07639 -77.98263 34008 ft 460 kts 322°
2026-05-05 01:32 22.12700 -78.02455 34008 ft 460 kts 322°
2026-05-05 01:32 22.17772 -78.06660 34008 ft 460 kts 322°
2026-05-05 01:33 22.22868 -78.10889 34008 ft 460 kts 322°
2026-05-05 01:33 22.27940 -78.15102 34008 ft 460 kts 322°
2026-05-05 01:34 22.32995 -78.19304 34008 ft 460 kts 322°
2026-05-05 01:34 22.38062 -78.23521 34008 ft 460 kts 322°
2026-05-05 01:35 22.43126 -78.27739 34008 ft 460 kts 322°
2026-05-05 01:35 22.48203 -78.31972 34008 ft 460 kts 322°
2026-05-05 01:36 22.53276 -78.36201 34008 ft 460 kts 322°
2026-05-05 01:36 22.58323 -78.40390 34008 ft 460 kts 322°
2026-05-05 01:37 22.63396 -78.44604 34008 ft 460 kts 322°
2026-05-05 01:37 22.68477 -78.48829 34008 ft 460 kts 322°
2026-05-05 01:38 22.73551 -78.53051 34007 ft 459 kts 323°
2026-05-05 01:38 22.79144 -78.56345 34003 ft 459 kts 341°
2026-05-05 01:39 22.85386 -78.57856 34008 ft 460 kts 350°
2026-05-05 01:39 22.91729 -78.59051 34008 ft 459 kts 350°
2026-05-05 01:40 22.98037 -78.60238 34008 ft 459 kts 350°
2026-05-05 01:40 23.04324 -78.61423 34008 ft 459 kts 350°
2026-05-05 01:41 23.10662 -78.62618 34008 ft 459 kts 350°
2026-05-05 01:41 23.16954 -78.63805 34008 ft 459 kts 350°
2026-05-05 01:42 23.23250 -78.64994 34008 ft 459 kts 350°
2026-05-05 01:42 23.29600 -78.66195 34008 ft 459 kts 350°
2026-05-05 01:43 23.35936 -78.67394 34008 ft 459 kts 350°
2026-05-05 01:43 23.42228 -78.68586 34008 ft 459 kts 350°
2026-05-05 01:44 23.48554 -78.69785 34008 ft 459 kts 350°
2026-05-05 01:44 23.54831 -78.70976 34008 ft 459 kts 350°
2026-05-05 01:45 23.61131 -78.72173 34008 ft 459 kts 350°
2026-05-05 01:45 23.67454 -78.73376 34008 ft 459 kts 350°
2026-05-05 01:46 23.73779 -78.74580 34008 ft 459 kts 350°
2026-05-05 01:46 23.80075 -78.75779 34008 ft 459 kts 350°
2026-05-05 01:47 23.86380 -78.76981 34008 ft 459 kts 350°
2026-05-05 01:47 23.92691 -78.78187 34008 ft 459 kts 350°
2026-05-05 01:48 23.98928 -78.79594 34004 ft 459 kts 341°
2026-05-05 01:48 24.04670 -78.82674 34010 ft 459 kts 329°
2026-05-05 01:49 24.10150 -78.86288 34008 ft 459 kts 328°
2026-05-05 01:49 24.15621 -78.89906 34008 ft 459 kts 328°
2026-05-05 01:50 24.21100 -78.93535 34008 ft 459 kts 328°
2026-05-05 01:50 24.26556 -78.97150 34008 ft 459 kts 328°
2026-05-05 01:51 24.32030 -79.00782 34008 ft 459 kts 328°
2026-05-05 01:51 24.37462 -79.04390 34008 ft 459 kts 328°
2026-05-05 01:52 24.42923 -79.08021 34008 ft 459 kts 328°
2026-05-05 01:52 24.48404 -79.11668 34008 ft 459 kts 328°
2026-05-05 01:53 24.53845 -79.15293 34002 ft 458 kts 328°
2026-05-05 01:53 24.56553 -79.17098 33573 ft 453 kts 328°
2026-05-05 01:53 24.59239 -79.18890 32802 ft 455 kts 328°
2026-05-05 01:54 24.61977 -79.20718 31965 ft 459 kts 328°
2026-05-05 01:54 24.64691 -79.22530 31147 ft 461 kts 328°
2026-05-05 01:54 24.67417 -79.24351 30466 ft 460 kts 328°
2026-05-05 01:54 24.70155 -79.26181 29996 ft 454 kts 328°
2026-05-05 01:55 24.72855 -79.27986 29493 ft 449 kts 328°
2026-05-05 01:55 24.75493 -79.29752 28983 ft 445 kts 328°
2026-05-05 01:55 24.78118 -79.31509 28453 ft 442 kts 328°
2026-05-05 01:55 24.80756 -79.33276 27914 ft 438 kts 328°
2026-05-05 01:56 24.83350 -79.35014 27386 ft 435 kts 328°
2026-05-05 01:56 24.85920 -79.36738 26849 ft 431 kts 328°
2026-05-05 01:56 24.88490 -79.38461 26299 ft 428 kts 328°
2026-05-05 01:56 24.90999 -79.40146 25758 ft 425 kts 328°
2026-05-05 01:57 24.93521 -79.41839 25216 ft 421 kts 328°
2026-05-05 01:57 24.96028 -79.43523 24661 ft 418 kts 328°
2026-05-05 01:57 24.98483 -79.45173 24115 ft 415 kts 328°
2026-05-05 01:57 25.00939 -79.46825 23569 ft 412 kts 328°
2026-05-05 01:58 25.03377 -79.48465 23016 ft 409 kts 328°
2026-05-05 01:58 25.05792 -79.50090 22466 ft 406 kts 328°
2026-05-05 01:58 25.08187 -79.51703 21964 ft 401 kts 328°
2026-05-05 01:58 25.10539 -79.53288 21808 ft 388 kts 328°
2026-05-05 01:59 25.12828 -79.54830 21343 ft 384 kts 328°
2026-05-05 01:59 25.15097 -79.56360 20785 ft 383 kts 328°
2026-05-05 01:59 25.17379 -79.57900 20251 ft 381 kts 328°
2026-05-05 01:59 25.19641 -79.59426 19734 ft 379 kts 328°
2026-05-05 02:00 25.21862 -79.60926 19226 ft 376 kts 328°
2026-05-05 02:00 25.24088 -79.62430 18717 ft 374 kts 328°
2026-05-05 02:00 25.26309 -79.63930 18207 ft 371 kts 328°
2026-05-05 02:00 25.28510 -79.65418 17695 ft 369 kts 328°
2026-05-05 02:01 25.30684 -79.66888 17140 ft 368 kts 328°
2026-05-05 02:01 25.32874 -79.68370 16548 ft 368 kts 328°
2026-05-05 02:01 25.35059 -79.69849 16081 ft 364 kts 328°
2026-05-05 02:01 25.37151 -79.71269 15618 ft 361 kts 327°
2026-05-05 02:02 25.39066 -79.73017 15121 ft 357 kts 311°
2026-05-05 02:02 25.40601 -79.75173 14625 ft 355 kts 306°
2026-05-05 02:02 25.42039 -79.77383 14124 ft 352 kts 305°
2026-05-05 02:02 25.43458 -79.79585 13625 ft 350 kts 305°
2026-05-05 02:03 25.44874 -79.81789 13123 ft 348 kts 305°
2026-05-05 02:03 25.46259 -79.83947 12629 ft 346 kts 305°
2026-05-05 02:03 25.47657 -79.86127 12133 ft 344 kts 305°
2026-05-05 02:03 25.49025 -79.88262 11712 ft 340 kts 305°
2026-05-05 02:04 25.50375 -79.90369 11537 ft 329 kts 305°
2026-05-05 02:04 25.51691 -79.92425 11364 ft 329 kts 305°
2026-05-05 02:04 25.53026 -79.94509 11152 ft 328 kts 305°
2026-05-05 02:04 25.54330 -79.96549 10934 ft 325 kts 305°
2026-05-05 02:05 25.55624 -79.98573 10714 ft 316 kts 305°
2026-05-05 02:05 25.56879 -80.00536 10505 ft 308 kts 305°
2026-05-05 02:05 25.58098 -80.02444 10303 ft 299 kts 305°
2026-05-05 02:05 25.59281 -80.04296 10106 ft 292 kts 305°
2026-05-05 02:06 25.60440 -80.06110 9913 ft 284 kts 305°
2026-05-05 02:06 25.61564 -80.07872 9699 ft 278 kts 305°
2026-05-05 02:06 25.62669 -80.09605 9485 ft 274 kts 305°
2026-05-05 02:06 25.63771 -80.11332 9275 ft 274 kts 305°
2026-05-05 02:07 25.64883 -80.13077 9062 ft 273 kts 305°
2026-05-05 02:07 25.65830 -80.14869 8849 ft 272 kts 296°
2026-05-05 02:07 25.66646 -80.16767 8593 ft 272 kts 295°
2026-05-05 02:07 25.67446 -80.18671 8335 ft 270 kts 295°
2026-05-05 02:08 25.68239 -80.20544 8088 ft 269 kts 295°
2026-05-05 02:08 25.69038 -80.22429 7834 ft 268 kts 295°
2026-05-05 02:08 25.69827 -80.24285 7540 ft 268 kts 295°
2026-05-05 02:08 25.70627 -80.26170 7240 ft 266 kts 295°
2026-05-05 02:09 25.71128 -80.28114 6939 ft 264 kts 274°
2026-05-05 02:09 25.71137 -80.30160 6686 ft 263 kts 268°
2026-05-05 02:09 25.71048 -80.32182 6433 ft 263 kts 267°
2026-05-05 02:09 25.70949 -80.34206 6174 ft 262 kts 267°
2026-05-05 02:10 25.70851 -80.36242 5913 ft 261 kts 267°
2026-05-05 02:10 25.70755 -80.38242 5656 ft 260 kts 267°
2026-05-05 02:10 25.70660 -80.40234 5401 ft 259 kts 267°
2026-05-05 02:10 25.70565 -80.42227 5148 ft 258 kts 267°
2026-05-05 02:11 25.70472 -80.44206 4898 ft 257 kts 269°
2026-05-05 02:11 25.70772 -80.46117 4753 ft 255 kts 295°
2026-05-05 02:11 25.71859 -80.47694 4640 ft 256 kts 319°
2026-05-05 02:11 25.73118 -80.49058 4529 ft 256 kts 309°
2026-05-05 02:12 25.74163 -80.50665 4401 ft 255 kts 303°
2026-05-05 02:12 25.76071 -80.53979 4125 ft 254 kts 313°
2026-05-05 02:12 25.77389 -80.55296 3998 ft 253 kts 312°
2026-05-05 02:13 25.78213 -80.56993 4017 ft 254 kts 282°
2026-05-05 02:13 25.78186 -80.58933 4020 ft 254 kts 257°